TimeCST,TemperatureF,Dew PointF,Humidity,Sea Level PressureIn,VisibilityMPH,Wind Direction,Wind SpeedMPH,Gust SpeedMPH,PrecipitationIn,Events,Conditions,WindDirDegrees,DateUTC
12:52 AM,21.0,12.0,68,30.13,-9999.0,NW,4.6,-,N/A,,Unknown,320,2013-01-13 06:52:00
1:52 AM,19.0,10.0,68,30.15,-9999.0,North,8.1,-,N/A,,Unknown,350,2013-01-13 07:52:00
2:52 AM,18.0,8.1,65,30.17,-9999.0,NNW,10.4,18.4,N/A,,Unknown,340,2013-01-13 08:52:00
3:52 AM,18.0,9.0,68,30.15,-9999.0,North,4.6,-,N/A,,Unknown,360,2013-01-13 09:52:00
4:52 AM,17.1,7.0,65,30.17,-9999.0,NNW,10.4,17.3,N/A,,Unknown,330,2013-01-13 10:52:00
5:52 AM,15.1,6.1,68,30.21,-9999.0,Variable,5.8,-,N/A,,Unknown,0,2013-01-13 11:52:00
6:52 AM,14.0,6.1,71,-9999,-9999.0,NW,4.6,-,N/A,,Unknown,320,2013-01-13 12:52:00
7:52 AM,16.0,7.0,68,30.26,-9999.0,NW,6.9,-,N/A,,Unknown,320,2013-01-13 13:52:00
8:52 AM,14.0,3.0,62,30.26,-9999.0,NW,12.7,20.7,N/A,,Unknown,310,2013-01-13 14:52:00
9:52 AM,16.0,3.9,59,-9999,-9999.0,NW,8.1,18.4,N/A,,Unknown,310,2013-01-13 15:52:00
10:52 AM,18.0,5.0,57,30.30,-9999.0,WNW,11.5,18.4,N/A,,Unknown,300,2013-01-13 16:52:00
11:52 AM,18.0,5.0,57,30.29,-9999.0,NW,11.5,17.3,N/A,,Unknown,320,2013-01-13 17:52:00
12:52 PM,21.0,7.0,55,30.27,-9999.0,WNW,9.2,-,N/A,,Unknown,290,2013-01-13 18:52:00
1:52 PM,21.9,8.1,55,30.28,-9999.0,WNW,13.8,19.6,N/A,,Unknown,300,2013-01-13 19:52:00
2:52 PM,24.1,9.0,53,30.29,-9999.0,West,9.2,20.7,N/A,,Unknown,280,2013-01-13 20:52:00
3:52 PM,25.0,10.0,53,30.31,-9999.0,NW,8.1,-,N/A,,Unknown,310,2013-01-13 21:52:00
4:52 PM,23.0,9.0,55,30.33,-9999.0,WNW,9.2,-,N/A,,Unknown,300,2013-01-13 22:52:00
5:52 PM,21.9,9.0,58,30.35,-9999.0,WNW,6.9,-,N/A,,Unknown,300,2013-01-13 23:52:00
6:52 PM,19.9,7.0,57,-9999,-9999.0,Calm,Calm,-,N/A,,Unknown,0,2013-01-14 00:52:00
7:52 PM,17.1,8.1,68,30.37,-9999.0,Calm,Calm,-,N/A,,Unknown,0,2013-01-14 01:52:00
8:52 PM,16.0,8.1,71,30.39,-9999.0,Calm,Calm,-,N/A,,Unknown,0,2013-01-14 02:52:00
9:52 PM,12.9,7.0,77,30.40,-9999.0,Calm,Calm,-,N/A,,Unknown,0,2013-01-14 03:52:00
10:52 PM,12.0,8.1,84,-9999,-9999.0,Calm,Calm,-,N/A,,Unknown,0,2013-01-14 04:52:00
11:52 PM,12.0,7.0,80,30.44,-9999.0,Calm,Calm,-,N/A,,Unknown,0,2013-01-14 05:52:00